This is the latest recevied weather packets stored in our database for station/object WW3TRG. If no packets are shown the sender has not sent any weather packets the latest 10 day(s).
| Time | Temp. | Humidity | Pressure | Rain* | Wind** | Luminosity | Snow |
|---|---|---|---|---|---|---|---|
| 1777837212 | 15° C | 35% | 1011 hPa | 0 mm | - | 159 W/m² | - |
| 1777836909 | 15° C | 34% | 1011.1 hPa | 0 mm | - | 104 W/m² | - |
| 1777836604 | 15° C | 34% | 1011.1 hPa | 0 mm | - | 551 W/m² | - |
| 1777836301 | 14.44° C | 36% | 1011.3 hPa | 0 mm | - | 595 W/m² | - |
| 1777835996 | 13.89° C | 35% | 1011.4 hPa | 0 mm | - | 446 W/m² | - |
| 1777835694 | 15° C | 33% | 1011.7 hPa | 0 mm | - | 478 W/m² | - |
| 1777835390 | 15° C | 35% | 1011.6 hPa | 0 mm | - | 130 W/m² | - |
| 1777835087 | 13.89° C | 36% | 1011.4 hPa | 0 mm | - | 559 W/m² | - |
| 1777834784 | 16.11° C | 35% | 1011.5 hPa | 0 mm | - | 714 W/m² | - |
| 1777834481 | 15° C | 35% | 1011.8 hPa | 0 mm | - | 394 W/m² | - |
| 1777834180 | 13.89° C | 42% | 1011.5 hPa | 0 mm | - | 683 W/m² | - |
| 1777833877 | 13.33° C | 36% | 1011.8 hPa | 0 mm | - | 165 W/m² | - |
| 1777833573 | 13.89° C | 37% | 1011.8 hPa | 0 mm | - | 351 W/m² | - |
| 1777833270 | 12.78° C | 37% | 1011.9 hPa | 0 mm | - | 174 W/m² | - |
| 1777832967 | 12.78° C | 37% | 1012 hPa | 0 mm | - | 146 W/m² | - |
| 1777832666 | 13.89° C | 37% | 1012 hPa | 0 mm | - | 136 W/m² | - |
| 1777832363 | 12.78° C | 36% | 1012 hPa | 0 mm | - | 137 W/m² | - |
| 1777832060 | 12.78° C | 36% | 1011.7 hPa | 0 mm | - | 117 W/m² | - |
| 1777831756 | 13.33° C | 34% | 1011.8 hPa | 0 mm | - | 728 W/m² | - |
| 1777831454 | 14.44° C | 35% | 1011.9 hPa | 0 mm | - | 706 W/m² | - |
| 1777831150 | 14.44° C | 42% | 1011.8 hPa | 0 mm | - | 739 W/m² | - |
| 1777830849 | 13.89° C | 35% | 1011.7 hPa | 0 mm | - | 778 W/m² | - |
| 1777830544 | 14.44° C | 36% | 1011.8 hPa | 0 mm | - | 798 W/m² | - |
| 1777830243 | 13.89° C | 35% | 1011.8 hPa | 0 mm | - | 749 W/m² | - |
| 1777829937 | 13.33° C | 37% | 1012 hPa | 0 mm | - | 498 W/m² | - |
* Rain latest hour (hover to see other rain measurements)
** Current wind speed in m/s (hover to see current wind gust speed)